Theta_e
310 309 308 307 306 305 305 303 302 301 301 301 301 300 299 298 297 297 297 297 296 296 297 297 297 297 298 298 298 299 304 305 304 304 305 307 306 306 304 305 305 305 305
306 305 304 303 302 302 301 301 299 298 298 297 296 296 296 296 296 296 296 296 296 296 296 296 296 296 296 296 297 297 297 298 301 300 300 301 302 302 301 303 302 302 303
303 302 302 301 300 299 298 297 296 296 296 296 296 296 296 295 295 295 295 295 295 295 295 295 295 295 295 295 296 296 297 297 296 297 297 298 298 299 299 300 300 301 301
301 300 300 298 297 296 296 296 296 296 296 295 295 295 295 295 295 294 294 294 294 294 294 294 294 294 295 295 295 296 296 295 294 294 295 296 297 297 298 297 298 298 298
300 299 297 296 296 296 296 296 296 295 295 295 295 295 295 294 294 294 294 294 294 294 294 294 294 294 294 294 294 295 294 294 293 294 294 294 295 295 295 295 295 295 295
298 296 296 296 297 297 297 296 296 295 295 294 294 294 294 294 294 294 293 293 294 294 293 293 293 294 294 294 294 294 293 292 293 292 293 293 293 293 293 292 292 292 292
296 296 297 297 297 296 296 295 295 294 294 294 294 294 294 294 293 293 293 292 293 293 293 293 293 293 294 294 294 293 292 291 291 291 291 291 291 291 290 290 290 290 291
296 296 297 296 296 295 295 294 294 293 293 293 293 293 293 293 293 292 292 292 292 292 293 293 293 293 293 293 292 291 290 290 289 289 289 289 288 288 288 289 289 289 290
296 296 296 295 295 295 294 293 292 292 292 292 292 292 292 292 292 292 292 291 291 292 292 292 292 292 292 290 289 289 288 288 287 287 287 288 288 288 288 289 288 288 288
296 295 295 295 294 293 292 291 291 291 291 291 291 291 291 291 292 291 291 291 291 291 291 292 292 290 289 288 287 287 287 287 287 287 287 287 287 287 287 287 287 287 286
295 295 294 294 293 291 291 290 290 289 289 289 290 290 290 289 290 291 290 290 290 290 290 290 290 288 288 287 286 286 286 286 287 287 286 286 286 286 286 285 286 286 286
295 294 293 292 291 290 289 289 289 288 288 288 289 289 289 289 289 290 289 289 289 288 289 289 288 287 287 286 286 286 286 287 286 286 286 286 286 286 286 286 286 286 286
294 292 291 290 289 288 288 288 288 288 288 289 289 289 289 289 289 289 289 289 289 288 287 287 287 287 286 286 287 286 286 286 286 286 286 286 286 285 285 285 285 285 286
291 290 289 289 288 288 288 288 289 289 289 289 289 289 289 289 289 288 288 288 287 286 286 286 287 286 285 285 286 286 285 286 286 286 286 286 286 286 286 285 285 285 285
289 289 289 289 289 289 289 289 289 288 288 288 288 287 287 288 288 287 286 286 284 285 285 286 286 286 286 286 286 286 286 287 287 286 286 286 286 285 285 285 285 285 285
289 289 288 288 288 288 288 288 288 288 287 287 287 286 287 287 287 285 284 286 285 285 285 285 286 286 286 286 286 286 286 286 286 286 286 285 285 285 284 284 284 284 283
288 288 288 288 288 288 288 287 287 288 287 286 286 286 285 286 286 284 284 285 285 285 285 285 286 286 286 286 286 286 286 286 286 285 285 284 284 283 283 283 282 282 282
288 288 288 288 287 287 287 286 286 286 286 286 285 285 284 285 284 284 284 284 284 284 285 285 285 285 285 285 285 285 285 284 283 282 281 281 281 280 280 280 280 280 280
288 287 287 287 287 286 286 285 285 285 284 285 284 284 283 283 283 282 282 283 283 284 284 284 285 285 285 285 285 284 283 281 280 280 279 279 278 278 278 277 277 277 277
287 287 287 286 286 285 285 284 284 283 283 283 282 282 282 281 281 281 282 282 282 283 283 283 284 284 284 284 283 282 280 279 279 278 278 277 277 276 276 275 275 275 275
287 286 286 285 285 284 284 283 282 281 281 280 280 280 278 279 279 280 280 281 281 281 281 282 282 282 282 282 281 279 278 278 277 277 276 276 275 275 274 274 274 273 273
286 285 285 284 284 283 282 281 280 280 279 279 279 278 278 277 278 278 279 279 280 280 280 280 280 280 281 280 278 277 277 277 276 276 275 274 274 273 273 273 273 273 273
285 284 283 283 282 281 280 279 278 278 278 278 277 277 277 277 277 277 277 278 278 278 278 278 279 279 278 276 276 276 275 275 275 275 274 274 273 273 273 272 272 272 272
283 283 282 281 280 279 278 277 277 277 277 276 276 275 275 275 276 276 276 276 276 277 277 277 277 277 276 275 275 274 274 276 275 273 273 272 272 272 272 272 272 272 271
282 281 280 279 278 277 276 276 276 275 275 275 275 274 274 274 274 274 275 275 275 275 275 276 276 276 275 274 275 277 277 275 273 272 272 271 271 271 271 271 271 271 271
280 279 278 277 276 275 275 274 274 274 273 273 273 273 273 273 273 274 274 274 274 274 274 275 275 275 275 275 275 276 276 273 271 271 271 271 271 271 271 271 270 270 270
Wind_Speed
14 12 10 9 7 5 4 5 5 7 8 10 13 15 17 19 21 23 24 25 27 28 29 31 33 33 35 36 35 33 32 31 39 57 47 44 45 45 49 47 49 44 45
13 11 10 8 7 5 5 6 7 9 11 14 17 19 20 22 23 25 26 27 29 31 32 33 34 35 36 37 37 37 36 33 34 46 53 51 47 44 49 47 50 45 43
12 10 8 6 5 4 6 8 11 13 15 16 18 20 22 24 26 27 29 31 32 33 34 35 36 38 39 39 39 39 36 34 33 37 48 48 47 44 47 47 49 48 47
11 8 6 4 4 6 8 10 12 14 15 17 19 21 23 25 27 29 30 32 33 34 34 35 36 37 38 39 40 39 38 37 35 37 42 47 47 47 46 45 48 47 48
9 6 4 3 4 6 8 10 13 16 18 20 22 23 24 26 29 32 34 36 38 39 38 37 37 38 38 38 38 39 37 36 35 38 42 44 46 46 43 44 44 47 49
8 7 4 2 3 7 11 14 17 20 22 23 25 27 28 29 32 35 37 39 38 38 39 40 40 40 38 37 35 34 32 32 35 36 40 42 45 43 43 42 42 42 39
10 6 2 4 8 12 15 19 22 23 24 26 28 30 32 33 35 36 37 38 38 38 40 41 42 41 40 37 36 34 33 30 30 33 37 38 39 37 36 38 36 33 34
9 5 4 7 11 15 18 22 23 25 26 28 29 31 33 32 34 36 37 38 37 37 38 39 40 40 37 35 36 36 36 35 32 29 28 31 32 34 33 33 29 26 25
7 5 7 10 14 18 21 23 24 26 27 29 30 32 33 33 33 35 37 38 37 37 37 37 37 36 33 29 32 36 36 32 27 26 23 24 25 25 24 21 16 14 16
6 7 10 13 17 20 22 23 25 27 30 31 32 33 34 35 34 34 36 36 37 37 37 37 35 32 30 29 28 27 29 29 29 26 20 17 18 17 16 14 11 7 9
7 10 13 16 19 20 21 24 26 27 30 32 33 34 35 36 36 35 35 33 34 36 36 35 32 29 27 24 20 20 21 24 21 16 14 15 15 14 13 12 9 7 6
11 13 15 16 18 19 22 23 26 29 31 33 35 37 36 35 35 34 35 31 29 30 32 30 28 26 23 19 20 18 19 16 11 12 13 12 12 14 14 13 13 12 11
12 13 13 14 17 20 23 24 26 27 30 32 34 36 37 37 36 35 36 30 28 27 26 24 22 20 17 18 19 13 13 10 9 10 10 11 12 13 13 12 12 12 10
12 11 13 16 17 19 21 23 26 27 29 30 33 36 38 38 36 35 34 30 26 24 22 21 19 15 12 14 12 10 8 9 9 9 9 10 10 11 11 11 10 9 9
10 12 13 15 16 19 21 24 26 27 30 33 34 35 37 39 36 33 29 31 25 23 24 20 18 16 13 8 5 6 6 6 7 8 9 10 10 10 10 10 9 9 8
11 12 13 15 18 21 24 26 26 29 31 31 32 31 34 35 34 31 26 26 22 21 23 21 20 17 14 10 8 8 9 9 9 9 9 9 9 10 10 10 9 9 7
12 13 14 17 20 24 26 29 33 31 32 32 31 31 30 31 28 24 27 26 24 19 21 23 21 18 15 13 12 11 10 9 7 7 7 7 8 9 9 10 9 8 7
14 15 17 19 22 24 27 29 30 33 36 37 33 31 29 26 23 22 23 25 24 21 21 23 22 18 16 14 12 10 8 5 5 5 7 8 9 10 10 10 10 9 8
16 17 19 21 23 25 26 28 29 31 33 36 36 33 29 25 22 22 22 24 25 24 24 25 23 20 17 14 12 10 8 7 7 8 10 11 13 13 12 11 11 10 10
19 20 21 22 23 24 25 27 28 29 31 32 33 30 27 27 25 25 24 23 23 23 23 23 22 20 17 15 12 11 9 9 10 11 13 14 15 15 14 13 12 10 9
21 22 22 22 23 23 24 25 26 27 29 30 29 27 23 28 27 25 24 24 23 21 21 20 20 18 17 13 11 12 11 11 12 14 15 16 15 14 13 11 10 9 8
22 21 21 21 22 22 22 24 24 25 26 27 27 27 25 26 24 23 22 22 20 19 19 18 18 17 15 11 12 12 13 14 15 17 17 17 15 12 10 9 7 7 6
21 20 20 20 21 21 21 21 22 23 24 24 25 25 24 22 22 21 21 20 18 17 16 16 16 15 11 10 13 14 15 16 18 19 18 16 13 11 9 8 7 6 6
20 20 19 19 19 19 19 19 20 21 22 23 22 21 21 21 20 20 19 18 17 17 16 16 16 14 12 13 15 15 16 18 20 20 18 15 12 11 10 9 8 8 7
19 18 18 18 18 18 18 18 20 20 20 21 20 20 19 19 19 18 18 17 17 17 17 18 18 17 15 17 19 21 22 20 22 21 18 15 13 12 11 11 10 9 9
17 17 16 17 17 18 18 19 19 20 21 20 20 19 19 18 18 18 18 18 18 18 18 19 20 20 20 22 23 24 23 22 23 22 19 17 16 14 14 13 12 11 11
Wind_Direction
135 129 125 118 108 99 83 60 38 22 2 350 342 337 335 332 329 326 325 324 322 321 321 319 318 316 313 311 307 302 297 291 284 293 293 297 296 294 296 295 297 296 294
135 130 126 120 108 85 56 31 12 358 350 346 343 340 336 333 331 329 328 328 327 327 326 324 322 319 316 315 312 309 304 297 285 288 296 294 295 296 297 296 298 297 296
136 133 125 114 95 54 25 10 1 355 348 343 338 335 335 332 329 328 327 327 326 325 324 322 321 319 317 316 314 313 308 301 298 294 296 300 301 301 303 301 301 300 299
145 138 128 104 58 30 13 359 347 341 339 336 335 334 332 329 327 326 325 324 324 325 325 324 322 320 318 316 314 313 313 311 308 302 299 300 301 302 302 303 302 303 302
153 143 135 98 46 16 358 349 344 339 335 333 332 331 330 329 326 325 325 326 327 327 327 326 324 322 320 316 314 315 314 312 309 307 305 305 304 305 303 303 301 301 302
166 162 147 98 4 345 342 339 338 336 333 331 330 329 329 329 328 327 326 326 326 326 327 327 326 324 321 318 315 314 314 314 312 309 307 303 303 303 303 302 300 300 300
174 175 205 323 334 335 336 335 333 331 330 329 329 327 327 328 325 323 321 320 320 323 324 324 323 323 322 320 316 314 315 313 309 306 302 302 303 306 308 306 303 302 302
189 211 286 318 327 329 329 329 327 325 325 324 324 322 321 322 321 320 318 316 317 318 319 320 321 322 323 321 319 316 317 319 321 316 307 306 308 307 304 302 303 299 300
212 257 297 313 318 321 324 324 323 322 323 322 321 321 320 320 319 318 317 316 316 316 317 319 320 322 324 323 319 317 317 321 325 323 318 312 309 311 312 310 303 315 304
235 277 301 309 314 318 320 322 322 322 320 319 320 321 321 320 321 320 318 319 318 319 320 321 324 326 326 326 323 323 325 329 327 328 331 331 332 335 329 322 317 328 332
256 281 295 305 312 316 320 320 320 320 319 319 319 319 321 321 321 320 319 322 321 320 320 322 323 327 327 327 326 324 323 323 337 343 344 339 347 354 5 12 17 10 8
264 281 294 303 309 311 313 315 316 317 317 318 318 319 322 323 322 320 319 322 321 317 318 319 320 325 326 330 328 332 332 335 352 349 343 352 11 26 29 28 28 27 23
268 280 290 299 305 308 311 315 319 323 321 321 322 322 322 322 323 321 320 320 318 318 317 319 318 322 333 331 335 334 341 353 359 359 13 27 25 22 21 26 31 32 35
266 277 290 299 305 310 315 319 321 323 321 321 320 318 316 317 320 321 318 316 318 318 315 314 317 322 320 326 352 359 14 33 42 37 16 12 11 13 13 20 23 27 41
262 281 293 302 309 314 315 316 316 318 318 317 316 314 315 313 316 314 310 309 311 309 302 310 311 312 309 319 351 9 20 12 11 9 355 351 353 358 7 14 20 30 45
265 277 289 302 308 309 310 312 313 314 314 313 313 311 310 308 309 308 294 301 299 295 297 303 305 303 305 290 289 309 319 324 330 334 337 342 347 353 356 1 8 15 22
264 277 290 300 305 309 311 312 313 313 314 314 316 315 312 309 306 300 286 297 296 292 285 292 297 294 289 285 287 295 302 310 326 338 345 349 350 350 348 345 349 354 357
266 276 289 299 304 307 307 310 313 315 317 318 321 319 318 314 305 298 295 294 291 282 277 286 289 285 281 277 278 281 284 297 313 324 337 336 332 329 327 325 325 328 329
267 280 290 296 300 303 307 310 313 315 315 316 318 320 319 315 308 303 299 295 295 284 279 278 278 273 269 268 267 270 275 287 305 316 321 319 317 315 312 311 310 312 315
272 281 287 291 297 303 308 311 313 314 314 315 316 318 317 312 310 306 302 299 294 286 278 271 263 260 257 256 261 270 279 290 302 309 312 312 310 307 305 303 303 303 304
272 278 284 293 299 304 309 311 312 313 314 314 314 314 311 305 307 304 303 301 294 284 275 265 257 251 249 247 261 270 280 292 302 306 308 307 306 302 300 298 296 295 297
272 280 287 294 298 302 306 308 311 311 312 313 311 307 304 302 302 302 303 302 294 282 272 262 254 249 246 251 268 278 288 296 302 305 306 305 302 297 293 289 285 285 286
275 281 287 292 297 302 306 308 309 309 310 309 306 305 304 302 301 300 300 299 293 283 271 261 254 251 252 267 275 283 292 298 305 305 303 297 290 284 280 275 273 272 270
274 280 287 293 297 301 304 306 307 308 308 307 306 305 304 303 301 298 296 293 288 280 273 266 260 256 260 272 279 287 295 299 301 299 295 285 274 270 266 263 263 263 264
274 283 289 293 297 301 302 304 305 304 304 304 305 305 304 302 300 299 297 292 286 280 276 272 266 262 262 268 273 280 287 294 296 292 284 273 266 263 260 259 258 259 262
276 281 287 292 297 299 301 303 303 302 301 301 301 302 303 302 300 298 295 291 286 283 281 280 280 278 277 278 282 284 287 291 288 282 274 266 262 260 259 259 261 262 265